TimeCST,TemperatureF,Dew PointF,Humidity,Sea Level PressureIn,VisibilityMPH,Wind Direction,Wind SpeedMPH,Gust SpeedMPH,PrecipitationIn,Events,Conditions,WindDirDegrees,DateUTC
12:53 AM,46.9,32.0,56,30.25,10.0,North,17.3,-,N/A,,Mostly Cloudy,350,2012-11-27 06:53:00
1:53 AM,46.0,28.9,51,30.27,10.0,North,20.7,-,N/A,,Mostly Cloudy,350,2012-11-27 07:53:00
2:53 AM,44.1,27.0,51,30.28,10.0,North,12.7,-,N/A,,Mostly Cloudy,360,2012-11-27 08:53:00
3:45 AM,44.6,26.6,49,30.30,10.0,North,13.8,-,N/A,,Mostly Cloudy,360,2012-11-27 09:45:00
3:53 AM,44.1,27.0,51,30.30,10.0,North,17.3,-,N/A,,Mostly Cloudy,360,2012-11-27 09:53:00
4:14 AM,42.8,26.6,53,30.31,10.0,North,15.0,-,N/A,,Mostly Cloudy,360,2012-11-27 10:14:00
4:53 AM,44.1,28.0,53,30.32,10.0,North,16.1,20.7,N/A,,Mostly Cloudy,360,2012-11-27 10:53:00
5:53 AM,43.0,30.0,60,30.32,10.0,North,12.7,-,N/A,,Mostly Cloudy,350,2012-11-27 11:53:00
6:53 AM,43.0,30.0,60,30.34,10.0,North,13.8,-,N/A,,Overcast,360,2012-11-27 12:53:00
7:53 AM,42.1,30.9,65,30.38,10.0,North,11.5,-,N/A,,Overcast,350,2012-11-27 13:53:00
8:53 AM,43.0,33.1,68,30.41,10.0,North,10.4,-,N/A,,Overcast,10,2012-11-27 14:53:00
9:53 AM,44.1,32.0,63,30.44,10.0,North,12.7,-,N/A,,Overcast,350,2012-11-27 15:53:00
10:53 AM,45.0,32.0,60,30.43,10.0,North,8.1,-,N/A,,Overcast,350,2012-11-27 16:53:00
11:53 AM,46.9,33.1,59,30.42,10.0,North,5.8,-,N/A,,Overcast,360,2012-11-27 17:53:00
12:53 PM,48.0,33.1,56,30.39,10.0,NNW,8.1,-,N/A,,Overcast,340,2012-11-27 18:53:00
1:53 PM,50.0,35.1,57,30.36,10.0,NNW,5.8,-,N/A,,Mostly Cloudy,340,2012-11-27 19:53:00
2:17 PM,50.0,35.6,58,30.35,10.0,Calm,Calm,-,N/A,,Scattered Clouds,0,2012-11-27 20:17:00
2:53 PM,53.1,35.1,50,30.34,10.0,Variable,4.6,-,N/A,,Partly Cloudy,0,2012-11-27 20:53:00
3:53 PM,53.1,35.1,50,30.33,10.0,Variable,4.6,-,N/A,,Clear,0,2012-11-27 21:53:00
4:53 PM,52.0,35.1,53,30.33,10.0,NNW,3.5,-,N/A,,Clear,340,2012-11-27 22:53:00
5:53 PM,48.9,35.1,59,30.32,10.0,Calm,Calm,-,N/A,,Clear,0,2012-11-27 23:53:00
6:53 PM,46.0,35.1,66,30.32,10.0,SSW,4.6,-,N/A,,Clear,210,2012-11-28 00:53:00
7:53 PM,45.0,35.1,68,30.33,10.0,SW,6.9,-,N/A,,Clear,230,2012-11-28 01:53:00
8:53 PM,44.1,35.1,71,30.34,10.0,SW,5.8,-,N/A,,Clear,220,2012-11-28 02:53:00
9:53 PM,43.0,36.0,76,30.35,10.0,SW,5.8,-,N/A,,Clear,230,2012-11-28 03:53:00
10:53 PM,42.1,35.1,76,30.35,10.0,SW,3.5,-,N/A,,Clear,230,2012-11-28 04:53:00
11:53 PM,39.0,36.0,89,30.35,10.0,Calm,Calm,-,N/A,,Clear,0,2012-11-28 05:53:00